[[{"header":{"parameterUnit":"m.s-1","parameterCategory":1,"la1":30.2991,"la2":30.254,"lo1":-89.0895,"lo2":-89.0444,"dy":0.0017,"dx":0.0017,"nx":28,"ny":28,"refTime":"2024-08-23T03:00:00:Z","depth":0,"parameterNumber":2,"parameterNumberName":"U-component_of_WINDS"},"data":[0,0,0,0,0,0,0,0,0,0,0,0,0,0,0,0,0,0,0,0,0,0,0,0,0,0,0,0,0,0,0,0,0,0,0,0,0,0,0,0,0,0,0,0,0,0,0,0,0,0,0,0,0,0,0,0,0,0,-5.9941,-5.9942,0,-5.9957,-5.9957,-5.9957,-5.9852,-5.9849,-5.9846,-5.9843,-5.9861,-5.9864,-5.9867,0,0,0,0,0,0,0,0,0,0,0,0,0,-5.9824,-5.9827,-5.9941,-5.9942,-5.9942,-5.9957,-5.9957,-5.9957,-5.9852,-5.9848,-5.9845,-5.9841,-5.986,-5.9864,-5.9867,0,0,0,0,0,0,0,0,0,0,0,0,0,-5.9861,-5.9827,-5.9941,-5.9891,-5.9887,-5.9957,-5.9957,-5.9957,-5.9853,-5.9848,-5.9844,-5.984,-5.9858,-5.9863,-5.9868,-5.9988,0,0,-5.9883,-5.9885,0,0,0,0,0,0,0,0,-5.9859,-5.9865,-5.9898,-5.9895,-5.989,-5.9898,-5.9922,-5.9967,-5.9854,-5.9866,-5.9843,-5.9837,-5.9877,-5.988,-5.9893,-5.9988,-5.9989,-5.9883,-5.9886,-5.9888,-5.989,0,0,0,0,0,0,0,-5.9856,-5.9864,-5.9947,-5.9899,-5.9894,-5.9869,-5.9869,-5.993,-5.9896,-5.9864,-5.9857,-5.986,-5.9874,-5.9888,-5.9892,-5.9989,-5.9883,-5.9888,-5.9891,-5.9892,-6.0186,-6.0191,0,0,0,0,0,0,-5.986,-5.9863,-5.9947,-5.9948,-5.9863,-5.9874,-5.9875,-5.99,-5.9895,-5.989,-5.9864,-5.9855,-5.9882,-5.9887,-5.9893,-6.0033,-5.9888,-5.9893,-5.9896,-6.0181,-6.0187,-6.0193,0,0,0,0,0,0,-5.9858,-5.9869,-5.9946,-5.9903,-5.9911,-5.9881,-5.991,-5.9902,-5.9917,-5.9895,-5.9888,-5.9885,-5.9879,-5.9886,-5.9965,-6.0033,-5.9895,-5.99,-6.0176,-6.0183,-6.019,-6.0316,0,0,0,0,0,0,-5.9855,-5.9869,-5.9913,-5.9905,-5.9914,-6.0018,-5.9914,-5.9906,-5.9925,-5.9914,-5.9913,-5.9908,-5.9876,-5.9958,-5.997,-6.0037,-5.9903,-6.0169,-6.0179,-6.0188,-6.0306,-6.0327,-6.0345,0,0,0,0,0,-5.9851,-5.9948,-5.9916,-5.9927,-5.9969,-6.0022,-6.0027,-5.9987,-5.9931,-5.9976,-5.9962,-5.9908,-6.0023,-5.9967,-5.9979,-6.0049,-6.0165,-6.0176,-6.0187,-6.0297,-6.0322,-6.0344,0,0,0,0,0,0,-5.9965,-5.9946,-5.991,-6.0007,-6.0017,-6.0004,-6.0059,-6.0015,-6.0042,-6.0031,-5.998,-5.9981,-6.007,-6.0067,-6.0005,-6.0165,-6.0084,-6.0098,-6.0164,-6.0188,-6.0207,-6.0206,-5.9907,0,0,0,0,0,-6.0001,-6.0046,-6.0027,-6.0114,-6.0121,-6.009,-6.0111,-6.008,-6.0089,-6.0093,-6.0084,-6.0096,-6.0134,-6.0161,-6.0195,-6.0305,-6.0304,-6.0359,-6.0378,-6.0394,-6.0407,-6.0467,-6.0491,-6.0229,-6.0228,-6.0228,0,0,-6.0077,-6.0072,-6.0103,-6.0137,-6.0141,-6.0189,-6.0094,-6.0148,-6.0184,-6.0101,-6.0175,-6.017,-6.018,-6.0275,-6.0317,-6.0276,-6.048,-6.0408,-6.0421,-6.0425,-6.048,-6.0505,-6.0528,-6.0236,-6.0235,-6.0233,0,0,-6.0239,-6.0239,-6.0312,-6.0319,-6.0326,-6.0305,-6.0323,-6.0317,-6.0311,-6.0384,-6.0324,-6.0366,-6.0433,-6.0443,-6.0457,-6.0625,-6.0577,-6.0637,-6.0739,-6.0798,-6.0819,-6.0837,-6.0898,-6.0921,-6.065,-6.065,-6.065,0,-6.0332,-6.0401,-6.0356,-6.0415,-6.0432,-6.0359,-6.0434,-6.0442,-6.0461,-6.0476,-6.0429,-6.0513,-6.0514,-6.0612,-6.0653,-6.0666,-6.0686,-6.0637,-6.0819,-6.0837,-6.0853,-6.0911,-6.0934,-6.0658,-6.0657,-6.0656,-6.0655,0,-6.0516,-6.0565,-6.0624,-6.0644,-6.0667,-6.0734,-6.07,-6.073,-6.0697,-6.0681,-6.0759,-6.0758,-6.0791,-6.0812,-6.078,-6.0906,-6.088,-6.0828,-6.0745,-6.0887,-6.094,-6.0962,-6.0668,-6.0666,-6.0663,-6.0662,0,0,-6.075,-6.0744,-6.0767,-6.0776,-6.0779,-6.0817,-6.0881,-6.0913,-6.0941,-6.0956,-6.101,-6.107,-6.1021,-6.1037,-6.1006,-6.1057,-6.1192,-6.0998,-6.0998,-6.1035,-6.1333,-6.1374,-6.14,-6.1161,-6.1165,-6.1168,-6.1333,0,-6.0909,-6.1018,-6.0979,-6.1091,-6.1136,-6.1068,-6.1124,-6.1134,-6.1121,-6.1159,-6.1145,-6.1189,-6.1121,-6.113,-6.1178,-6.1166,-6.1252,-6.1153,-6.1211,-6.1214,-6.1212,-6.1428,-6.147,-6.1626,-6.1353,-6.1357,-6.1359,0,-6.1109,-6.1133,-6.1249,-6.1246,-6.1264,-6.1315,-6.1343,-6.1379,-6.1389,-6.1376,-6.1395,-6.1353,-6.1417,-6.1335,-6.1424,-6.1358,-6.138,-6.1378,-6.1383,-6.1387,-6.1296,-6.1439,-6.1674,-6.1698,-6.1392,-6.1389,-6.1387,0,-6.127,-6.1331,-6.1409,-6.1418,-6.1416,-6.1454,-6.1455,-6.146,-6.1483,-6.1507,-6.1522,-6.1554,-6.1572,-6.1598,-6.1567,-6.1509,-6.1661,-6.1576,-6.1654,-6.1655,-6.1689,-6.1688,-6.1932,-6.1702,-6.1702,-6.1701,-6.1701,0,-6.1452,-6.1526,-6.1481,-6.1529,-6.161,-6.1566,-6.1648,-6.1642,-6.1648,-6.1694,-6.1637,-6.1682,-6.1638,-6.1679,-6.1655,-6.1734,-6.1742,-6.1735,-6.1728,-6.174,-6.1742,-6.1754,-6.1743,-6.1707,-6.1706,-6.1705,-6.1704,0,-6.1646,-6.1618,-6.1698,-6.169,-6.169,-6.1751,-6.1744,-6.1789,-6.1773,-6.1832,-6.1844,-6.1819,-6.1865,-6.1836,-6.1883,-6.1867,-6.197,-6.1947,-6.1967,-6.1961,-6.2041,-6.2035,-6.2304,-6.2337,-6.2085,-6.2087,-6.2089,0,-6.1764,-6.182,-6.1818,-6.1844,-6.1849,-6.1893,-6.1916,-6.1875,-6.1902,-6.1918,-6.1961,-6.2002,-6.2033,-6.211,-6.2097,-6.2133,-6.2112,-6.2204,-6.2117,-6.2129,-6.2115,-6.2113,-6.2119,-6.2222,-6.2225,-6.2227,-6.2229,0,-6.1978,-6.1962,-6.1997,-6.2028,-6.2056,-6.2079,-6.2096,-6.2122,-6.2081,-6.2114,-6.216,-6.2184,-6.2232,-6.2275,-6.2305,-6.2308,-6.2263,-6.2256,-6.2277,-6.2291,-6.23,-6.2297,-6.2016,-6.225,-6.2248,-6.2247,-6.2245,-6.2245,-6.2138,-6.2185,-6.2191,-6.2232,-6.2241,-6.226,-6.2302,-6.2291,-6.2329,-6.2364,-6.2338,-6.2394,-6.2404,-6.244,-6.2449,-6.2493,-6.2456,-6.2485,-6.2492,-6.25,-6.2512,-6.2293,-6.2498,-6.2497,-6.2497,-6.2496,-6.2496,0,-6.2351,-6.2351,-6.239,-6.2416,-6.2449,-6.2403,-6.2421,-6.2452,-6.2501,-6.2513,-6.2545,-6.2599,-6.264,-6.2631,-6.2669,-6.2706,-6.2686,-6.2717,-6.2714,-6.2716,-6.2542,-6.2521,-6.2732,-6.2732,-6.2732,-6.2732,-6.2732,-6.2732,-6.2465,-6.2542,-6.2527,-6.2608,-6.2609,-6.2662,-6.2676,-6.2694,-6.2704,-6.2767,-6.28,-6.2794,-6.2798,-6.2836,-6.2872,-6.2868,-6.2886,-6.2925,-6.2914,-6.2751,-6.2728,-6.2706,-6.2686,-6.2928,-6.2929,-6.3084,-6.3085,-6.3087]},{"header":{"parameterUnit":"m.s-1","parameterCategory":1,"la1":30.2991,"la2":30.254,"lo1":-89.0895,"lo2":-89.0444,"dy":0.0017,"dx":0.0017,"nx":28,"ny":28,"refTime":"2024-08-23T03:00:00:Z","depth":0,"parameterNumber":3,"parameterNumberName":"V-component_of_WINDS"},"data":[0,0,0,0,0,0,0,0,0,0,0,0,0,0,0,0,0,0,0,0,0,0,0,0,0,0,0,0,0,0,0,0,0,0,0,0,0,0,0,0,0,0,0,0,0,0,0,0,0,0,0,0,0,0,0,0,0,0,-0.9358,-0.9358,0,-0.9406,-0.9406,-0.9407,-0.9388,-0.9387,-0.9386,-0.9385,-0.9435,-0.9438,-0.944,0,0,0,0,0,0,0,0,0,0,0,0,0,-0.9251,-0.9253,-0.9358,-0.9358,-0.9359,-0.9406,-0.9406,-0.9407,-0.9388,-0.9387,-0.9386,-0.9384,-0.9435,-0.9437,-0.944,0,0,0,0,0,0,0,0,0,0,0,0,0,-0.9298,-0.9254,-0.9358,-0.9355,-0.9356,-0.9405,-0.9406,-0.9407,-0.9389,-0.9387,-0.9385,-0.9384,-0.9434,-0.9437,-0.9441,-0.9496,0,0,-0.9452,-0.9453,0,0,0,0,0,0,0,0,-0.9296,-0.9302,-0.9355,-0.9356,-0.9356,-0.9389,-0.9387,-0.9437,-0.9389,-0.9376,-0.9385,-0.9383,-0.9421,-0.9426,-0.9439,-0.9499,-0.9501,-0.9452,-0.9454,-0.9456,-0.9457,0,0,0,0,0,0,0,-0.9292,-0.93,-0.9377,-0.9356,-0.9356,-0.9352,-0.9357,-0.9397,-0.9408,-0.9377,-0.9376,-0.9382,-0.9421,-0.9435,-0.944,-0.9501,-0.9452,-0.9455,-0.9457,-0.9459,-0.961,-0.9612,0,0,0,0,0,0,-0.9289,-0.9297,-0.9375,-0.9378,-0.9321,-0.9355,-0.9361,-0.938,-0.9407,-0.941,-0.9383,-0.9381,-0.943,-0.9435,-0.9441,-0.9509,-0.9456,-0.9459,-0.9461,-0.9608,-0.9611,-0.9613,0,0,0,0,0,0,-0.9287,-0.9296,-0.9373,-0.9337,-0.9347,-0.9359,-0.9381,-0.9382,-0.9396,-0.9412,-0.9414,-0.9395,-0.9429,-0.9436,-0.9483,-0.9511,-0.9461,-0.9464,-0.9606,-0.9609,-0.9612,-0.9645,0,0,0,0,0,0,-0.9284,-0.9295,-0.9316,-0.9338,-0.9349,-0.9414,-0.9383,-0.9384,-0.9402,-0.9399,-0.9424,-0.9426,-0.9428,-0.9478,-0.9486,-0.9515,-0.9467,-0.9604,-0.9607,-0.9611,-0.9642,-0.9649,-0.9655,0,0,0,0,0,-0.928,-0.9324,-0.9318,-0.9327,-0.9376,-0.9416,-0.9422,-0.9423,-0.9404,-0.9426,-0.9436,-0.9425,-0.9506,-0.9482,-0.9492,-0.9522,-0.9602,-0.9606,-0.961,-0.9639,-0.9648,-0.9655,0,0,0,0,0,0,-0.9306,-0.9327,-0.932,-0.9372,-0.9392,-0.9412,-0.944,-0.9432,-0.9458,-0.9455,-0.9455,-0.9461,-0.9509,-0.952,-0.9493,-0.9578,-0.9551,-0.9558,-0.9569,-0.9578,-0.9584,-0.9582,-0.947,0,0,0,0,0,-0.9318,-0.9348,-0.9365,-0.9409,-0.942,-0.9428,-0.9445,-0.9444,-0.9465,-0.9474,-0.9487,-0.9508,-0.9538,-0.9558,-0.9587,-0.9642,-0.9648,-0.9668,-0.9674,-0.968,-0.9686,-0.9718,-0.9727,-0.9627,-0.9627,-0.9626,0,0,-0.9343,-0.9358,-0.9377,-0.9415,-0.943,-0.9463,-0.9435,-0.947,-0.9494,-0.9479,-0.9524,-0.9535,-0.9558,-0.961,-0.9633,-0.962,-0.9715,-0.9685,-0.9689,-0.9693,-0.9723,-0.9732,-0.9741,-0.9629,-0.9629,-0.9628,0,0,-0.9405,-0.9419,-0.9458,-0.9474,-0.9497,-0.9502,-0.9511,-0.9532,-0.9539,-0.9584,-0.9573,-0.9602,-0.9653,-0.9671,-0.9686,-0.9754,-0.9746,-0.9763,-0.9799,-0.9829,-0.9837,-0.9845,-0.9871,-0.988,-0.9769,-0.9769,-0.9769,0,-0.9434,-0.9481,-0.948,-0.9516,-0.9533,-0.952,-0.956,-0.9575,-0.9607,-0.9619,-0.9604,-0.9669,-0.9683,-0.974,-0.9756,-0.9768,-0.978,-0.9762,-0.9836,-0.9843,-0.985,-0.9875,-0.9884,-0.9771,-0.9771,-0.977,-0.977,0,-0.9516,-0.9549,-0.9578,-0.9609,-0.9629,-0.9667,-0.9671,-0.9692,-0.9688,-0.9695,-0.9742,-0.9758,-0.979,-0.9803,-0.98,-0.9859,-0.9851,-0.9836,-0.9809,-0.9862,-0.9885,-0.9894,-0.9774,-0.9773,-0.9773,-0.9772,0,0,-0.9598,-0.9627,-0.9638,-0.9652,-0.9676,-0.9702,-0.9738,-0.9769,-0.9788,-0.9809,-0.9842,-0.9885,-0.9871,-0.9889,-0.9888,-0.9914,-0.9969,-0.9896,-0.9897,-0.9911,-1.0037,-1.0049,-1.006,-0.9962,-0.9964,-0.9965,-1.0035,0,-0.9664,-0.973,-0.9729,-0.979,-0.9821,-0.9808,-0.984,-0.9859,-0.9866,-0.9893,-0.9901,-0.9932,-0.9911,-0.9922,-0.9947,-0.9957,-0.9995,-0.9951,-0.9994,-0.9995,-0.9991,-1.0072,-1.0086,-1.0151,-1.0044,-1.0046,-1.0047,0,-0.975,-0.9775,-0.9839,-0.9859,-0.9872,-0.9901,-0.9929,-0.9955,-0.9976,-0.9979,-0.9998,-0.9993,-1.0031,-1.0002,-1.0055,-1.0026,-1.0043,-1.005,-1.0052,-1.0059,-1.0026,-1.0083,-1.0172,-1.0183,-1.0061,-1.006,-1.0059,0,-0.9807,-0.9855,-0.99,-0.9912,-0.9936,-0.9957,-0.9968,-0.9987,-1.0005,-1.003,-1.0042,-1.0071,-1.0087,-1.0109,-1.0112,-1.009,-1.0167,-1.0137,-1.0172,-1.0172,-1.0191,-1.019,-1.0286,-1.0197,-1.0197,-1.0197,-1.0197,0,-0.9882,-0.9922,-0.9926,-0.9954,-0.9998,-0.9997,-1.0041,-1.005,-1.0067,-1.0096,-1.0086,-1.0114,-1.0115,-1.0144,-1.0145,-1.0191,-1.0197,-1.0202,-1.0202,-1.0204,-1.0204,-1.0217,-1.0214,-1.0199,-1.0199,-1.0198,-1.0198,0,-0.9954,-0.9957,-1.0006,-1.0024,-1.0029,-1.0062,-1.0077,-1.0104,-1.0109,-1.0147,-1.0156,-1.0164,-1.0198,-1.0202,-1.024,-1.0242,-1.0297,-1.0291,-1.029,-1.029,-1.0325,-1.0323,-1.0435,-1.0451,-1.035,-1.0351,-1.0352,0,-1.0003,-1.0033,-1.0054,-1.0073,-1.0086,-1.0116,-1.0135,-1.0134,-1.0154,-1.018,-1.0204,-1.0236,-1.0262,-1.0316,-1.0326,-1.0356,-1.0352,-1.039,-1.0357,-1.0358,-1.0356,-1.0355,-1.0359,-1.0397,-1.0398,-1.0399,-1.04,0,-1.009,-1.009,-1.0117,-1.0146,-1.0169,-1.0191,-1.0212,-1.0228,-1.0229,-1.0253,-1.0286,-1.0306,-1.0346,-1.0379,-1.0408,-1.0419,-1.0411,-1.0409,-1.0419,-1.0423,-1.0422,-1.0425,-1.031,-1.0408,-1.0407,-1.0406,-1.0406,-1.0405,-1.0153,-1.018,-1.0199,-1.023,-1.0246,-1.0265,-1.0292,-1.03,-1.0328,-1.036,-1.0357,-1.0395,-1.0415,-1.0453,-1.0467,-1.0497,-1.0485,-1.0499,-1.0503,-1.0507,-1.0511,-1.0415,-1.0502,-1.0502,-1.0501,-1.0501,-1.0501,0,-1.0242,-1.0253,-1.0281,-1.0311,-1.0336,-1.0323,-1.0345,-1.0367,-1.0401,-1.0419,-1.0445,-1.0484,-1.0516,-1.0527,-1.0558,-1.058,-1.0577,-1.0588,-1.0588,-1.0591,-1.0519,-1.0509,-1.0591,-1.0591,-1.0591,-1.0591,-1.0591,-1.0591,-1.0291,-1.0336,-1.0339,-1.0392,-1.0403,-1.044,-1.0454,-1.0472,-1.0487,-1.0531,-1.0557,-1.0564,-1.0581,-1.0613,-1.0641,-1.0644,-1.0657,-1.0671,-1.0672,-1.0605,-1.0596,-1.0588,-1.0578,-1.0673,-1.0673,-1.0741,-1.0742,-1.0743]}]]